Tracking 17143 objects as of 30-June-2015
HD Live streaming from Space Station

CRRES DEB (CANISTER)

Track CRRES DEB (CANISTER) now!
CRRES DEB (CANISTER) is classified as:


NORAD ID: 21590
Int'l Code: 1990-065F
Perigee: 348.2 km
Apogee: 31,332.8 km
Inclination: 20.5 °
Period: 549.1 minutes
Semi major axis: 22211 km
RCS: 0.1267 m2 (medium)
Launch date: July 25, 1990
Source: United States (US)

Note: This is SATELLITE DEBRIS
Your satellite tracking list
Your tracking list is empty





NASA's NSSDC Master Catalog

Two Line Element Set (TLE):
1 21590U 90065F   15180.59627025  .00000061  00000-0  14489-3 0  9994
2 21590 020.4914 017.4412 6974898 206.2100 088.5390 02.62262070214568

Source of the keplerian elements: AFSPC

N2YO: 306